AFL1530 UNNT-UNTT

Flight info

Callsign AFL1530
Flight time 0h 30m
Altitude 25000
Route DIMID G828 NN
Aircraft A320/M-SDE3FGHIRWY/LB1

Departure

Time 2026-04-24 04:23
Airport Novosibirsk Tolmachevo Airport (UNNT)

Arrival

Time 2026-04-24 04:54
Airport Tomsk Kamov Airport (UNTT)
Time Latitude Longitude Altitude Speed Heading
2026-04-24 04:20 55.01068 82.66329 373 ft 0 kts 171°
2026-04-24 04:21 55.01041 82.66337 373 ft 8 kts 169°
2026-04-24 04:22 55.01035 82.66447 373 ft 14 kts 70°
2026-04-24 04:22 55.01078 82.66619 373 ft 17 kts 57°
2026-04-24 04:22 55.01209 82.66635 373 ft 23 kts 351°
2026-04-24 04:22 55.01363 82.66585 374 ft 13 kts 324°
2026-04-24 04:23 55.01366 82.66409 375 ft 18 kts 261°
2026-04-24 04:23 55.01325 82.65954 373 ft 73 kts 261°
2026-04-24 04:23 55.01207 82.64669 376 ft 138 kts 260°
2026-04-24 04:23 55.01033 82.62918 983 ft 146 kts 257°
2026-04-24 04:24 55.00846 82.61154 1877 ft 152 kts 257°
2026-04-24 04:24 55.00663 82.59378 2412 ft 173 kts 258°
2026-04-24 04:24 55.00439 82.57183 2901 ft 197 kts 260°
2026-04-24 04:24 55.00282 82.54660 3524 ft 223 kts 276°
2026-04-24 04:25 55.00977 82.52109 4140 ft 251 kts 314°
2026-04-24 04:25 55.02545 82.50663 5121 ft 263 kts 342°
2026-04-24 04:25 55.04358 82.50084 6231 ft 267 kts 349°
2026-04-24 04:25 55.06220 82.49715 7230 ft 272 kts 350°
2026-04-24 04:26 55.08106 82.49283 8234 ft 275 kts 347°
2026-04-24 04:26 55.10000 82.48712 9254 ft 278 kts 344°
2026-04-24 04:26 55.11901 82.48009 10237 ft 282 kts 342°
2026-04-24 04:26 55.13886 82.47173 10670 ft 305 kts 341°
2026-04-24 04:27 55.16023 82.46200 11014 ft 329 kts 340°
2026-04-24 04:27 55.18282 82.45135 11588 ft 342 kts 340°
2026-04-24 04:27 55.20604 82.44039 12386 ft 348 kts 340°
2026-04-24 04:27 55.22957 82.42939 13221 ft 352 kts 340°
2026-04-24 04:28 55.25342 82.41834 14045 ft 357 kts 341°
2026-04-24 04:28 55.27833 82.41182 14765 ft 368 kts 352°
2026-04-24 04:28 55.30426 82.41422 15501 ft 380 kts
2026-04-24 04:28 55.33041 82.42351 16208 ft 386 kts
2026-04-24 04:29 55.35679 82.43337 16920 ft 390 kts
2026-04-24 04:29 55.38381 82.44350 17634 ft 394 kts
2026-04-24 04:29 55.41069 82.45355 18319 ft 398 kts
2026-04-24 04:29 55.43792 82.46369 18899 ft 402 kts
2026-04-24 04:30 55.46541 82.47395 19484 ft 406 kts
2026-04-24 04:30 55.49314 82.48432 20068 ft 409 kts
2026-04-24 04:30 55.52111 82.49478 20658 ft 413 kts
2026-04-24 04:30 55.54934 82.50535 21224 ft 416 kts
2026-04-24 04:31 55.57781 82.51600 21778 ft 420 kts
2026-04-24 04:31 55.60652 82.52677 22337 ft 424 kts
2026-04-24 04:31 55.63547 82.53769 22881 ft 427 kts
2026-04-24 04:31 55.66467 82.54876 23419 ft 431 kts
2026-04-24 04:32 55.69413 82.55987 23882 ft 434 kts
2026-04-24 04:32 55.72381 82.57102 24335 ft 437 kts
2026-04-24 04:32 55.75366 82.58227 24776 ft 440 kts
2026-04-24 04:32 55.78367 82.59368 24996 ft 442 kts
2026-04-24 04:33 55.81399 82.60522 25046 ft 450 kts
2026-04-24 04:33 55.84490 82.61692 25049 ft 460 kts
2026-04-24 04:33 55.87659 82.62885 25043 ft 472 kts
2026-04-24 04:33 55.90918 82.64118 25045 ft 483 kts
2026-04-24 04:34 55.94222 82.65379 25039 ft 489 kts
2026-04-24 04:34 55.97560 82.66698 25038 ft 493 kts
2026-04-24 04:34 56.00796 82.68861 25035 ft 504 kts 21°
2026-04-24 04:34 56.03772 82.72308 25037 ft 514 kts 34°
2026-04-24 04:35 56.06325 82.76951 25037 ft 523 kts 49°
2026-04-24 04:35 56.08245 82.82505 25034 ft 528 kts 63°
2026-04-24 04:35 56.09431 82.88743 25036 ft 531 kts 75°
2026-04-24 04:35 56.10276 82.95202 25034 ft 531 kts 76°
2026-04-24 04:36 56.11097 83.01638 25029 ft 531 kts 76°
2026-04-24 04:36 56.11907 83.08095 25029 ft 531 kts 76°
2026-04-24 04:36 56.12714 83.14554 25029 ft 531 kts 76°
2026-04-24 04:36 56.13523 83.21010 25030 ft 531 kts 76°
2026-04-24 04:37 56.14325 83.27372 25027 ft 511 kts 76°
2026-04-24 04:37 56.15096 83.33498 25031 ft 498 kts 76°
2026-04-24 04:37 56.15863 83.39532 25025 ft 495 kts 76°
2026-04-24 04:37 56.16651 83.45527 25031 ft 493 kts 75°
2026-04-24 04:38 56.17455 83.51505 25027 ft 493 kts 75°
2026-04-24 04:38 56.18265 83.57480 24914 ft 493 kts 75°
2026-04-24 04:38 56.19072 83.63445 23873 ft 489 kts 75°
2026-04-24 04:38 56.19854 83.69309 22889 ft 474 kts 76°
2026-04-24 04:39 56.20592 83.74958 22133 ft 455 kts 76°
2026-04-24 04:39 56.21306 83.80477 21383 ft 453 kts 76°
2026-04-24 04:39 56.22013 83.85983 20656 ft 451 kts 76°
2026-04-24 04:39 56.22713 83.91471 19949 ft 450 kts 76°
2026-04-24 04:40 56.23410 83.96919 19364 ft 445 kts 76°
2026-04-24 04:40 56.24132 84.02297 18770 ft 440 kts 74°
2026-04-24 04:40 56.24943 84.07573 18195 ft 435 kts 73°
2026-04-24 04:40 56.25809 84.12759 17616 ft 430 kts 72°
2026-04-24 04:41 56.26686 84.17856 17093 ft 423 kts 72°
2026-04-24 04:41 56.27547 84.22887 16570 ft 418 kts 72°
2026-04-24 04:41 56.28381 84.27868 16055 ft 413 kts 72°
2026-04-24 04:41 56.29191 84.32826 15510 ft 415 kts 73°
2026-04-24 04:42 56.29997 84.37826 14962 ft 415 kts 73°
2026-04-24 04:42 56.30802 84.42866 14372 ft 413 kts 73°
2026-04-24 04:42 56.31588 84.47823 13790 ft 409 kts 73°
2026-04-24 04:42 56.32366 84.52721 13140 ft 406 kts 73°
2026-04-24 04:43 56.33129 84.57553 12532 ft 398 kts 73°
2026-04-24 04:43 56.33883 84.62332 11914 ft 394 kts 74°
2026-04-24 04:43 56.34627 84.67053 11264 ft 389 kts 74°
2026-04-24 04:43 56.35354 84.71691 10704 ft 375 kts 74°
2026-04-24 04:44 56.36033 84.76042 10516 ft 345 kts 74°
2026-04-24 04:44 56.36656 84.80052 10322 ft 321 kts 74°
2026-04-24 04:44 56.37244 84.83848 10018 ft 309 kts 74°
2026-04-24 04:44 56.37944 84.87480 9853 ft 305 kts 64°
2026-04-24 04:45 56.38604 84.89707 9769 ft 304 kts 57°
2026-04-24 04:45 56.40363 84.93659 9584 ft 301 kts 42°
2026-04-24 04:45 56.41390 84.95342 9496 ft 301 kts 40°
2026-04-24 04:45 56.42950 84.97868 9373 ft 302 kts 40°
2026-04-24 04:46 56.44522 85.00426 9004 ft 300 kts 40°
2026-04-24 04:46 56.46053 85.02926 8422 ft 295 kts 40°
2026-04-24 04:46 56.47552 85.05381 7845 ft 293 kts 41°
2026-04-24 04:46 56.49072 85.07874 7262 ft 290 kts 41°
2026-04-24 04:47 56.50565 85.10318 6688 ft 288 kts 41°
2026-04-24 04:47 56.52046 85.12747 6110 ft 286 kts 41°
2026-04-24 04:47 56.53517 85.15158 5528 ft 283 kts 41°
2026-04-24 04:47 56.54968 85.17536 4971 ft 280 kts 42°
2026-04-24 04:48 56.56402 85.19910 4499 ft 272 kts 46°
2026-04-24 04:48 56.57383 85.22578 4429 ft 242 kts 72°
2026-04-24 04:48 56.57642 85.25421 4362 ft 218 kts 98°
2026-04-24 04:48 56.57302 85.28016 4309 ft 210 kts 118°
2026-04-24 04:49 56.56543 85.30252 4227 ft 210 kts 128°
2026-04-24 04:49 56.55743 85.32435 4144 ft 208 kts 127°
2026-04-24 04:49 56.54941 85.34627 4008 ft 207 kts 127°
2026-04-24 04:49 56.54105 85.36723 3897 ft 203 kts 141°
2026-04-24 04:50 56.52874 85.37670 3808 ft 191 kts 180°
2026-04-24 04:50 56.51614 85.36962 3659 ft 198 kts 212°
2026-04-24 04:50 56.50474 85.35556 3432 ft 199 kts 211°
2026-04-24 04:50 56.49323 85.34180 3160 ft 195 kts 212°
2026-04-24 04:51 56.48211 85.32851 2935 ft 189 kts 211°
2026-04-24 04:51 56.47143 85.31572 2660 ft 179 kts 210°
2026-04-24 04:51 56.46138 85.30371 2447 ft 167 kts 209°
2026-04-24 04:51 56.45206 85.29257 2255 ft 152 kts 209°
2026-04-24 04:52 56.44347 85.28233 2026 ft 143 kts 208°
2026-04-24 04:52 56.43535 85.27266 1851 ft 138 kts 208°
2026-04-24 04:52 56.42733 85.26312 1654 ft 139 kts 208°
2026-04-24 04:52 56.41932 85.25360 1366 ft 135 kts 211°
2026-04-24 04:53 56.41149 85.24428 1140 ft 134 kts 214°
2026-04-24 04:53 56.40367 85.23498 944 ft 134 kts 215°
2026-04-24 04:53 56.39592 85.22568 748 ft 132 kts 217°
2026-04-24 04:53 56.38817 85.21650 585 ft 130 kts 216°
2026-04-24 04:54 56.38131 85.20849 575 ft 105 kts 216°
2026-04-24 04:54 56.37733 85.20360 572 ft 27 kts 213°
2026-04-24 04:54 56.37575 85.20175 569 ft 29 kts 211°
2026-04-24 04:54 56.37402 85.19966 568 ft 30 kts 213°
2026-04-24 04:55 56.37247 85.19764 570 ft 22 kts 240°
2026-04-24 04:55 56.37198 85.19703 569 ft 10 kts 89°
2026-04-24 04:55 56.37263 85.19804 574 ft 16 kts 33°
2026-04-24 04:55 56.37376 85.19939 568 ft 23 kts 33°
2026-04-24 04:56 56.37527 85.20120 570 ft 29 kts 34°
2026-04-24 04:56 56.37667 85.20285 572 ft 23 kts 33°
2026-04-24 04:56 56.37771 85.20348 571 ft 12 kts 332°
2026-04-24 04:56 56.37831 85.20197 575 ft 18 kts 303°
2026-04-24 04:57 56.37915 85.20160 568 ft 13 kts 38°
2026-04-24 04:57 56.38013 85.20273 568 ft 20 kts 33°
2026-04-24 04:57 56.38148 85.20434 570 ft 26 kts 34°
2026-04-24 04:57 56.38319 85.20636 573 ft 32 kts 33°
2026-04-24 04:58 56.38521 85.20877 573 ft 37 kts 33°
2026-04-24 04:58 56.38710 85.21103 575 ft 32 kts 33°
2026-04-24 04:58 56.38823 85.21235 572 ft 10 kts 28°
2026-04-24 04:58 56.38882 85.21179 572 ft 10 kts 303°
2026-04-24 04:59 56.38887 85.21164 572 ft 0 kts 303°